Wind_Speed
16 16 17 18 18 20 22 20 18 16 15 15 14 13 11 10 11 12 13 14 14 14 14 14 14 14 14 14 13 13 12 12 11 11 11 11 11 11 11 11 11 11 10 10 10 10 10 10 9 9 8 8 8 8 7 7 6 6 6 6 6 6 5
19 17 17 19 19 19 22 23 21 18 17 16 16 15 13 11 11 12 14 15 15 14 14 15 15 15 15 15 14 14 13 13 13 12 12 12 12 12 12 12 11 11 11 11 11 10 9 9 9 9 8 8 8 8 7 7 6 6 6 6 6 5 5
22 20 19 20 20 20 22 25 24 21 19 17 17 17 15 14 13 13 14 15 15 15 14 15 16 16 17 16 16 15 14 14 14 13 13 13 13 12 12 12 12 11 11 11 11 10 10 9 9 9 8 8 8 7 7 7 7 7 6 6 5 5 4
23 22 20 21 22 22 22 25 26 24 21 18 17 19 18 16 14 14 14 15 16 15 15 15 16 17 18 18 17 16 16 15 15 14 13 13 13 13 13 13 12 12 11 11 11 10 10 10 10 10 9 8 8 8 8 8 8 7 7 6 6 5 5
23 23 22 22 23 24 22 24 26 25 23 21 20 20 21 18 16 15 15 16 17 16 16 15 16 17 18 19 18 17 17 16 15 15 14 14 14 14 14 13 13 12 12 12 11 11 11 11 11 11 10 10 10 9 9 9 9 8 7 7 6 6 5
23 23 24 23 24 25 24 24 26 27 26 24 23 22 22 20 17 16 16 16 17 17 16 16 16 17 18 19 19 18 17 17 16 16 16 15 14 14 14 13 13 13 12 12 12 12 12 12 12 12 12 11 11 10 10 9 9 8 7 7 6 5 5
23 24 23 23 24 26 26 27 28 29 29 28 26 25 23 21 19 18 18 17 17 17 18 18 18 18 18 19 19 19 18 18 17 17 17 16 15 14 14 13 13 13 12 13 13 13 13 13 13 12 11 10 9 9 8 8 7 7 7 7 6 6 5
25 24 23 24 24 24 25 27 28 30 31 31 29 27 24 22 20 19 18 18 18 18 18 19 19 19 18 18 19 19 19 18 18 17 17 16 15 15 14 14 14 13 13 13 13 13 13 13 12 10 8 8 8 8 8 8 8 8 8 8 9 8 7
26 25 24 24 23 22 23 28 30 32 32 31 30 28 27 24 22 20 20 20 19 18 19 20 21 20 19 19 19 19 18 18 18 18 17 17 16 15 15 15 14 13 13 13 14 14 14 12 11 10 9 10 11 9 9 9 10 10 10 10 9 8 9
26 26 25 24 23 22 23 28 31 32 32 32 32 30 29 26 24 22 21 20 20 20 20 21 22 21 21 20 20 19 19 18 18 18 18 17 17 16 16 15 15 14 14 14 14 14 12 10 11 12 13 13 13 10 9 9 10 11 11 11 9 9 10
26 27 27 25 24 23 24 27 29 31 33 35 35 32 31 28 25 24 22 21 21 22 22 22 22 22 22 22 21 20 19 19 19 19 19 18 18 17 17 16 16 16 15 15 15 12 10 11 12 12 13 14 14 12 11 11 12 13 13 13 12 11 11
25 27 27 26 24 24 25 27 29 30 32 34 35 34 32 30 28 26 24 23 22 23 23 23 23 23 23 23 22 21 21 21 20 20 20 20 19 19 18 17 17 17 16 16 14 12 11 12 12 12 13 14 15 15 14 14 16 16 15 15 15 13 12
24 26 27 26 25 24 24 26 28 29 29 31 34 36 34 32 32 31 28 25 25 25 24 24 24 24 23 23 22 22 22 22 22 23 23 22 21 21 20 19 18 18 18 17 14 13 13 14 13 14 15 15 16 17 17 17 18 18 17 17 17 15 15
23 25 26 27 25 24 23 24 26 29 28 28 32 37 37 34 35 35 32 27 27 26 25 24 24 24 24 23 23 23 23 23 24 24 25 24 24 23 21 20 20 19 19 18 15 14 15 15 15 16 17 16 17 18 19 20 20 19 19 19 19 19 18
23 25 26 27 26 25 24 22 23 27 29 29 31 35 40 39 38 38 36 33 30 28 26 25 24 24 24 23 22 23 24 25 26 26 26 26 25 23 22 22 21 20 20 18 16 16 17 17 17 18 18 18 18 19 20 21 20 21 21 21 22 22 22
22 24 26 26 26 26 25 23 22 24 27 30 30 32 37 42 42 40 38 37 35 31 28 27 26 25 25 24 23 24 25 26 27 27 26 26 24 23 22 22 21 21 20 19 18 19 19 19 19 19 20 19 19 19 20 21 21 22 22 22 23 24 24
19 20 23 25 25 25 25 24 24 24 25 27 29 30 33 39 43 41 40 39 38 34 30 29 28 27 26 26 26 26 27 27 27 26 25 24 23 23 22 22 22 21 20 19 20 20 21 21 21 21 21 21 21 21 22 23 23 23 23 23 23 24 25
18 18 20 22 24 24 23 24 25 26 26 25 26 28 31 36 40 40 41 41 39 36 33 31 30 29 28 28 28 28 28 28 28 27 26 25 24 24 24 24 23 22 21 21 21 21 22 22 22 22 22 22 23 24 24 24 24 24 24 24 24 25 25
20 20 20 22 23 23 22 22 23 24 26 26 24 25 27 32 36 37 39 41 40 38 36 34 32 31 30 30 30 30 29 30 30 29 28 27 26 25 26 25 24 23 23 23 22 22 22 23 23 23 24 24 25 25 25 25 25 25 25 25 25 25 25
21 22 22 22 23 22 21 20 20 21 23 25 25 24 24 27 31 34 37 40 40 39 37 35 35 33 32 32 33 32 32 32 31 31 31 29 28 28 27 26 26 26 26 25 24 24 24 25 26 26 25 26 26 25 25 25 25 25 26 26 26 27 27
21 22 23 22 22 22 20 19 18 18 20 23 25 25 24 25 28 31 34 37 39 38 37 36 36 36 35 35 35 35 34 33 33 33 33 32 31 30 30 29 29 29 29 28 27 26 27 27 27 27 27 27 27 27 26 26 26 26 27 27 28 28 28
21 22 23 23 21 20 20 19 19 19 19 20 22 24 25 25 26 29 31 34 37 38 38 37 37 38 38 37 37 37 36 35 35 35 35 34 33 33 33 32 32 31 31 29 28 28 29 30 29 28 28 29 29 28 27 27 27 28 28 28 28 28 29
22 22 23 24 23 21 19 20 21 20 20 20 21 22 24 25 26 27 29 32 34 37 39 38 37 38 39 39 39 39 38 38 37 37 37 37 36 36 35 35 34 33 33 31 30 31 33 33 32 30 30 31 30 29 28 28 29 29 29 29 29 29 29
24 22 23 24 24 23 21 20 20 21 20 21 21 22 23 24 26 27 28 30 31 33 35 38 38 37 38 40 41 42 41 40 40 40 40 39 38 38 37 36 35 34 34 34 34 34 36 36 34 32 32 33 31 29 29 30 30 31 31 31 31 30 29
25 24 24 24 25 25 24 22 20 20 19 19 20 22 23 25 27 28 28 29 30 30 31 33 36 38 39 41 43 44 44 42 43 44 43 41 39 39 37 37 36 35 35 36 36 35 36 36 35 34 33 33 31 30 31 32 32 32 32 33 33 32 30
27 26 25 26 26 27 27 25 23 21 20 19 19 21 24 26 28 28 28 29 30 30 29 31 35 39 41 44 45 45 44 44 44 46 46 44 41 38 35 36 38 36 35 36 36 36 37 37 37 37 36 35 33 32 32 32 32 32 34 36 37 35 33
28 27 27 27 27 28 29 28 26 25 23 21 20 21 22 25 27 28 29 30 30 30 31 33 35 37 41 45 46 45 45 46 46 47 48 46 43 39 37 38 39 38 36 38 38 37 38 40 41 41 39 36 36 35 35 34 33 34 36 38 39 38 37
27 28 28 28 28 29 30 30 29 28 27 25 24 23 23 23 24 26 27 29 30 31 32 35 37 38 38 40 44 45 46 48 49 49 48 45 43 41 40 40 41 41 40 40 39 39 40 41 42 42 41 39 38 38 38 36 35 36 37 35 34 35 36
26 28 28 28 29 30 30 29 29 29 29 28 26 25 24 23 22 23 25 28 31 35 36 35 36 37 37 37 39 42 46 50 51 50 48 46 43 41 41 41 42 43 42 41 40 41 41 40 40 42 43 42 41 40 39 38 37 38 40 40 40 40 38
23 26 27 28 29 30 30 29 28 28 28 28 27 25 25 24 21 21 23 25 26 30 35 37 37 37 38 38 39 42 47 51 51 49 49 48 45 43 42 42 43 44 44 43 44 43 42 42 43 44 44 43 41 40 40 39 39 40 41 42 44 43 40
19 22 24 26 28 29 29 28 27 27 26 25 24 23 23 23 21 18 20 22 20 18 23 30 34 34 35 37 38 42 48 53 53 51 50 49 47 45 44 44 44 45 46 47 48 46 44 43 43 41 41 41 40 39 37 36 36 37 38 39 39 38 37
17 19 21 23 26 29 29 27 26 25 23 21 21 21 21 20 18 16 18 22 23 21 20 23 28 28 26 27 28 31 38 45 49 50 49 49 48 46 44 44 45 45 46 48 48 46 45 44 42 39 38 38 37 36 34 33 33 34 36 36 36 35 35
17 18 19 21 24 27 29 29 27 24 22 19 19 20 19 16 13 13 15 17 19 19 20 22 25 25 25 24 24 25 28 32 38 43 45 45 46 45 43 43 43 43 44 45 44 44 44 43 41 40 39 37 36 35 35 34 35 35 35 36 35 33 32
18 18 18 19 22 26 29 30 29 26 23 20 19 19 18 16 14 14 13 12 12 12 14 17 18 19 21 23 22 22 25 27 30 35 38 40 42 42 40 39 38 39 41 41 40 40 40 39 38 38 37 36 35 36 36 37 37 36 36 37 35 32 29
17 18 18 18 20 23 26 29 28 27 24 21 19 19 18 17 16 15 12 10 9 10 11 13 15 17 19 21 20 19 21 24 25 27 30 33 35 37 37 37 36 35 35 35 35 35 35 34 34 35 35 36 37 37 37 37 36 36 35 34 32 29 26
16 17 18 18 18 20 23 25 26 26 24 21 20 20 19 18 18 17 16 14 13 12 12 14 17 20 23 25 22 18 19 22 22 22 24 26 28 30 32 34 33 31 30 31 32 33 33 33 34 34 36 37 37 37 36 36 36 35 32 28 25 23 20
17 17 17 18 18 18 20 22 24 24 23 22 21 20 18 16 16 17 18 17 15 15 15 17 18 19 21 24 23 21 20 21 20 19 20 21 22 22 22 24 25 25 26 27 28 29 30 30 31 32 33 34 34 34 33 32 30 28 24 20 17 15 14
18 18 18 18 18 18 19 20 21 22 22 22 22 20 17 15 14 14 13 13 13 13 12 12 11 11 12 17 21 23 21 19 17 16 17 18 18 18 18 19 20 21 22 23 24 25 26 26 26 26 26 25 25 24 23 21 19 18 16 15 14 13 12
Wind_Direction
225 225 232 234 224 211 207 210 213 214 215 216 218 219 217 217 216 210 206 204 203 201 197 195 194 190 186 181 174 172 171 168 166 163 160 161 163 160 157 156 158 158 159 163 165 166 168 167 168 174 175 170 170 173 172 172 174 177 180 184 189 194 199
227 223 228 233 230 217 210 212 213 215 216 216 219 222 217 215 218 215 210 207 204 202 199 197 196 193 191 188 181 176 175 172 170 167 164 162 161 160 158 156 157 155 155 160 160 160 164 163 164 171 173 170 171 170 168 170 176 182 188 191 194 196 201
231 225 223 228 232 224 213 213 216 217 217 218 219 223 220 214 218 219 214 211 207 204 202 199 197 195 193 193 189 182 179 178 176 175 172 169 165 165 163 161 160 159 161 163 161 161 163 163 166 171 173 174 175 173 172 178 185 188 191 196 201 202 206
241 236 228 226 231 229 216 211 216 219 219 219 220 225 224 217 217 220 217 213 210 206 205 202 199 198 194 194 194 189 185 183 181 180 179 176 174 173 173 171 169 169 170 171 170 169 169 169 173 177 178 181 183 184 185 189 192 192 193 196 200 206 213
251 249 243 233 230 232 222 210 213 218 218 218 218 225 230 224 217 219 219 216 213 210 208 204 203 202 198 195 195 193 191 189 185 184 185 184 183 183 182 182 180 178 178 180 181 181 181 181 182 185 187 189 192 193 196 200 201 199 201 205 207 212 224
250 253 251 242 235 234 226 213 211 215 216 217 216 221 229 228 220 217 218 218 216 213 211 208 206 205 202 198 197 196 195 194 191 189 190 190 190 190 191 190 191 190 187 187 188 189 190 190 192 194 194 196 200 202 205 209 210 208 213 223 225 225 234
240 245 244 238 236 236 228 216 212 214 215 216 217 218 223 226 223 220 220 220 218 216 214 214 210 208 206 201 198 197 196 196 195 194 195 195 194 194 195 195 197 197 194 192 194 195 194 195 197 199 198 201 207 212 219 223 224 227 239 254 258 251 251
232 237 237 231 231 233 228 220 217 217 216 214 216 218 220 223 225 225 224 222 220 218 217 217 215 211 210 206 202 200 199 198 197 197 197 198 197 196 197 198 200 199 197 197 198 199 200 198 197 199 201 212 218 216 224 231 228 226 232 243 252 257 261
231 233 236 233 230 228 226 224 222 221 219 215 215 219 220 219 220 224 228 226 222 221 221 221 219 216 213 211 207 204 201 200 199 199 199 199 198 197 198 200 201 203 203 203 204 207 206 201 200 203 207 218 222 218 225 237 238 237 237 238 242 251 262
236 232 234 236 235 230 227 228 226 224 222 218 215 218 222 221 217 217 223 228 226 224 225 224 222 220 217 215 213 209 206 204 202 202 202 202 201 200 202 203 204 208 211 211 214 215 211 206 208 213 216 219 220 220 227 242 253 257 257 254 250 254 261
242 238 236 236 236 235 234 234 231 229 227 221 215 217 222 224 221 216 215 222 228 227 227 227 225 223 221 219 217 214 212 210 208 207 207 207 206 206 207 207 208 212 214 217 220 218 214 216 217 220 227 231 229 229 234 240 248 253 253 254 254 257 262
246 244 243 242 239 236 237 239 238 237 234 226 218 217 220 223 227 225 215 212 222 228 228 228 227 225 224 223 221 218 217 216 214 212 212 212 211 211 211 211 212 214 217 220 220 215 216 223 224 225 233 239 238 238 242 244 246 249 251 253 257 263 265
248 248 249 249 245 241 240 241 241 239 236 228 220 218 219 219 224 230 225 213 215 225 229 228 227 227 226 226 224 222 221 221 220 218 217 215 214 214 213 214 215 216 219 222 219 216 221 227 231 233 236 239 239 240 244 248 250 253 255 255 258 265 266
247 248 250 252 251 248 247 246 244 240 235 228 223 221 222 220 218 226 231 224 217 220 227 230 229 229 230 229 228 227 226 225 225 224 223 220 218 217 217 218 220 221 223 225 223 222 227 231 235 240 242 243 242 241 243 249 254 258 260 259 261 266 268
248 247 248 251 251 250 250 250 247 243 238 233 229 226 225 222 217 219 225 229 225 221 222 227 229 229 232 233 233 234 232 230 229 228 227 226 224 222 222 223 225 227 228 229 229 229 233 236 239 242 244 245 245 244 245 249 255 259 260 261 262 265 267
249 246 246 249 251 250 250 248 246 245 242 239 237 233 226 222 220 218 219 226 229 225 221 224 226 227 229 231 233 236 237 237 235 233 233 232 231 229 229 229 231 233 235 235 235 236 238 240 242 245 247 248 249 248 247 249 255 260 262 262 262 262 264
247 245 245 249 252 252 250 248 246 246 246 243 240 236 229 223 222 220 219 223 228 228 226 225 225 227 227 228 229 232 236 239 240 241 240 239 238 237 236 236 236 237 240 241 242 244 245 245 246 248 249 251 253 252 250 251 254 259 262 263 264 264 265
247 245 245 248 252 253 251 249 248 247 248 247 242 238 234 229 227 223 218 219 224 227 230 230 229 228 228 228 229 231 233 236 237 239 239 239 239 239 239 238 238 238 240 241 243 245 247 248 248 249 251 253 254 254 253 254 257 259 260 261 264 266 267
246 244 244 244 246 248 247 246 246 245 245 246 244 241 238 235 233 227 219 217 220 224 228 232 231 228 227 228 230 231 232 234 235 235 235 235 234 235 237 239 239 239 239 239 240 242 245 248 249 249 250 251 253 255 257 258 260 262 262 263 264 266 267
244 241 241 241 241 243 243 241 242 242 241 243 244 245 242 237 233 229 223 220 222 225 229 232 230 229 229 229 230 231 232 233 235 235 235 234 233 234 235 237 238 238 238 238 238 239 241 245 247 249 250 251 253 255 257 259 262 263 265 266 267 268 269
242 239 239 239 240 241 241 240 241 242 241 242 243 244 244 238 231 228 227 225 225 227 231 232 231 230 232 232 231 232 233 234 235 236 236 236 235 234 234 234 235 236 238 239 240 239 240 242 246 249 251 252 252 252 255 259 261 263 265 267 268 269 270
242 238 237 238 239 241 243 244 245 246 244 245 245 244 243 239 233 230 231 230 229 229 231 233 233 233 233 232 232 233 234 235 236 235 236 237 237 236 236 236 235 236 238 240 241 241 241 241 243 247 251 252 253 255 259 262 263 265 267 268 269 270 270
241 237 236 237 238 241 244 246 248 248 246 245 246 246 243 241 238 237 237 236 236 235 233 233 234 234 233 233 234 234 234 236 236 235 234 235 236 237 237 238 238 238 239 239 238 239 240 240 241 244 247 251 254 257 261 264 264 265 266 268 269 270 270
241 237 235 236 236 237 240 244 249 251 248 245 245 246 245 243 241 240 240 240 240 238 235 234 234 235 234 234 235 237 237 237 236 235 234 235 237 238 238 240 241 241 241 242 239 237 239 241 242 243 245 248 251 255 259 262 263 264 266 267 268 268 270
242 237 235 236 236 234 235 240 246 250 250 248 247 248 248 246 243 241 241 242 241 240 238 237 237 237 236 235 234 236 239 240 236 234 234 235 236 239 241 241 240 239 241 243 242 239 240 244 246 249 250 251 251 254 256 258 261 264 266 266 268 269 270
242 237 234 235 236 235 234 237 242 245 247 250 252 252 252 250 247 245 244 244 243 241 239 238 238 238 237 237 235 234 237 243 242 238 235 232 230 234 239 239 238 238 239 242 243 241 241 244 248 252 255 254 251 251 254 257 260 263 265 265 265 265 267
242 238 233 233 235 237 236 237 240 244 246 249 254 257 258 257 256 253 250 248 248 245 241 239 237 236 237 239 239 236 235 240 244 242 238 232 229 231 234 234 235 238 239 240 241 241 243 245 248 252 254 254 252 252 255 260 262 264 266 267 267 265 263
242 239 234 230 232 236 238 238 241 244 247 249 253 259 263 264 264 263 259 255 252 248 243 239 237 238 239 241 242 239 236 235 238 240 238 233 229 231 234 234 236 238 241 241 241 241 244 247 251 252 253 253 253 253 257 262 264 264 265 266 269 268 264
243 240 236 231 230 233 237 239 241 244 248 251 255 260 265 268 270 269 266 263 258 251 245 241 239 239 241 243 243 243 241 238 238 240 239 234 231 234 237 238 239 240 242 244 244 243 245 250 254 254 252 251 253 256 259 262 263 265 264 264 272 278 277
246 242 237 233 230 231 234 238 241 245 249 251 255 260 265 269 269 268 268 269 266 255 246 242 240 239 240 244 245 245 244 242 241 241 240 237 237 238 239 239 241 242 243 246 248 249 250 254 256 254 251 252 256 259 261 261 261 264 267 269 277 285 287
252 247 241 236 232 231 233 236 240 244 246 249 253 256 261 266 267 266 265 260 255 253 249 243 239 239 241 245 247 246 245 244 243 243 242 239 237 238 238 239 242 244 245 247 249 251 253 255 255 252 251 255 258 259 260 261 261 265 271 276 282 288 289
257 253 248 240 235 233 232 233 236 239 239 242 248 252 257 264 268 272 271 258 249 253 255 243 236 237 242 246 248 246 244 242 241 242 242 240 240 242 243 242 244 245 244 245 248 251 252 253 252 251 251 254 256 257 258 261 264 268 275 281 285 287 289
258 256 252 245 238 234 233 233 234 236 236 237 242 248 253 258 261 265 268 264 258 258 252 239 235 240 246 248 248 244 241 240 240 241 242 241 242 245 246 246 248 248 245 246 249 251 251 251 251 250 249 250 252 255 258 262 266 271 276 280 283 286 287
260 257 256 251 243 237 235 235 236 238 238 235 237 242 248 250 247 247 252 258 262 258 246 239 240 245 249 251 249 245 245 245 241 238 237 236 238 242 246 250 252 250 247 247 248 247 247 247 245 244 245 249 253 257 262 265 268 271 273 276 280 283 282
262 258 257 255 250 244 240 239 239 239 238 234 233 236 239 240 238 237 242 249 247 234 218 212 216 224 233 239 240 237 238 238 235 230 230 232 236 240 243 245 245 244 243 240 238 238 239 239 240 242 247 253 258 261 264 267 269 271 272 273 275 277 276
261 259 256 254 253 250 246 243 242 242 238 234 232 232 231 233 235 236 237 237 230 220 212 209 213 214 211 215 223 229 229 230 233 232 231 235 241 242 240 238 236 237 237 236 235 238 241 245 249 253 256 260 263 264 265 266 266 266 266 267 268 270 271
260 260 257 253 250 250 249 247 245 243 239 235 235 233 228 228 233 236 237 236 230 227 229 230 230 226 217 218 230 237 233 231 235 236 235 238 241 242 238 236 237 241 244 246 248 251 254 257 259 260 261 262 263 263 262 260 259 257 256 257 260 264 268
260 260 258 255 250 247 247 247 246 243 238 236 238 236 228 223 227 232 235 227 211 204 207 207 209 218 225 229 234 236 235 236 241 240 237 235 234 233 232 233 237 243 246 248 250 251 252 254 254 253 254 255 255 254 254 254 253 252 253 256 261 266 273
Height
5877 5878 5879 5880 5881 5884 5885 5886 5887 5888 5890 5891 5892 5893 5894 5895 5896 5896 5897 5898 5899 5900 5901 5902 5903 5904 5905 5906 5907 5908 5909 5909 5910 5911 5911 5912 5913 5913 5914 5915 5916 5916 5917 5918 5919 5919 5920 5921 5921 5922 5923 5923 5924 5924 5925 5925 5926 5927 5928 5928 5929 5929 5929
5875 5876 5877 5878 5879 5882 5884 5884 5885 5886 5888 5889 5890 5891 5892 5893 5894 5895 5896 5897 5898 5899 5900 5901 5902 5903 5904 5905 5906 5907 5908 5909 5910 5911 5911 5912 5913 5913 5914 5915 5916 5916 5917 5918 5919 5919 5920 5921 5921 5922 5923 5923 5924 5924 5925 5925 5926 5927 5927 5928 5928 5928 5928
5873 5874 5875 5876 5877 5879 5881 5883 5884 5885 5886 5888 5889 5890 5891 5892 5893 5894 5895 5896 5897 5898 5899 5900 5901 5902 5903 5904 5905 5906 5907 5908 5909 5910 5911 5912 5912 5913 5914 5915 5916 5916 5917 5918 5919 5919 5920 5920 5921 5922 5922 5923 5924 5924 5924 5925 5926 5926 5927 5927 5927 5928 5928
5872 5873 5874 5874 5874 5876 5879 5881 5882 5883 5885 5886 5888 5889 5889 5890 5891 5892 5894 5895 5896 5897 5898 5899 5900 5901 5902 5903 5904 5905 5906 5907 5908 5909 5911 5912 5912 5913 5914 5915 5916 5916 5917 5918 5918 5919 5919 5920 5921 5921 5922 5922 5923 5924 5924 5925 5925 5926 5926 5927 5927 5927 5928
5871 5872 5873 5873 5873 5874 5876 5879 5881 5882 5883 5884 5885 5887 5888 5889 5890 5891 5892 5894 5895 5896 5897 5898 5899 5900 5901 5902 5903 5904 5905 5906 5907 5908 5910 5911 5912 5913 5914 5915 5915 5916 5917 5917 5918 5918 5919 5919 5920 5920 5921 5922 5922 5923 5923 5924 5924 5925 5925 5926 5927 5927 5927
5868 5869 5871 5872 5872 5872 5874 5876 5878 5880 5881 5882 5883 5884 5885 5887 5889 5889 5891 5892 5893 5894 5896 5897 5898 5899 5900 5901 5902 5903 5904 5905 5906 5907 5909 5910 5911 5912 5913 5914 5915 5916 5916 5917 5917 5918 5918 5919 5919 5919 5920 5921 5921 5922 5923 5923 5924 5924 5925 5926 5927 5927 5927
5864 5865 5867 5869 5870 5870 5871 5872 5875 5876 5878 5879 5880 5881 5882 5885 5887 5888 5889 5890 5892 5893 5894 5896 5897 5898 5899 5900 5901 5902 5903 5904 5905 5906 5908 5909 5910 5911 5913 5914 5914 5915 5916 5916 5917 5917 5918 5918 5918 5919 5920 5921 5922 5923 5923 5924 5924 5924 5926 5927 5927 5927 5927
5862 5862 5863 5865 5866 5868 5869 5870 5872 5873 5874 5876 5877 5878 5880 5882 5884 5887 5888 5889 5890 5892 5893 5894 5896 5897 5898 5899 5900 5901 5902 5903 5904 5906 5907 5908 5909 5911 5912 5913 5913 5914 5915 5915 5916 5916 5916 5917 5918 5919 5921 5922 5922 5923 5923 5924 5924 5924 5925 5926 5926 5926 5927
5859 5860 5860 5861 5863 5866 5868 5869 5871 5872 5874 5875 5876 5876 5877 5879 5881 5884 5886 5887 5888 5890 5891 5893 5894 5895 5897 5898 5899 5900 5901 5902 5903 5905 5906 5907 5908 5909 5910 5911 5912 5913 5914 5914 5915 5915 5915 5917 5918 5918 5919 5920 5920 5921 5922 5922 5923 5923 5924 5924 5924 5924 5925
5856 5858 5859 5859 5861 5864 5865 5865 5867 5869 5871 5874 5875 5875 5875 5876 5878 5881 5883 5885 5887 5888 5889 5891 5892 5894 5895 5897 5898 5899 5900 5901 5903 5904 5905 5906 5907 5908 5909 5910 5911 5912 5912 5913 5913 5913 5915 5917 5917 5916 5917 5918 5918 5918 5920 5922 5923 5923 5923 5923 5923 5923 5923
5853 5855 5857 5858 5860 5862 5863 5863 5864 5865 5867 5869 5871 5873 5875 5876 5876 5877 5880 5883 5885 5886 5887 5889 5891 5892 5894 5895 5896 5898 5899 5900 5902 5903 5904 5905 5906 5907 5907 5908 5909 5910 5911 5911 5911 5913 5915 5915 5915 5916 5917 5918 5918 5918 5918 5920 5921 5921 5921 5921 5922 5922 5923
5852 5853 5854 5856 5858 5860 5860 5861 5861 5862 5864 5866 5869 5872 5875 5877 5877 5876 5877 5879 5881 5883 5885 5887 5889 5890 5891 5893 5894 5896 5898 5899 5900 5901 5902 5903 5904 5905 5905 5906 5907 5908 5909 5909 5910 5912 5913 5913 5914 5915 5916 5916 5916 5916 5917 5917 5918 5919 5919 5920 5921 5921 5922
5850 5851 5852 5852 5854 5857 5858 5858 5859 5860 5861 5863 5866 5868 5871 5874 5876 5875 5875 5876 5878 5880 5882 5884 5886 5888 5889 5891 5892 5894 5895 5897 5898 5899 5900 5901 5901 5902 5903 5904 5905 5906 5907 5908 5909 5911 5911 5912 5913 5913 5914 5914 5915 5915 5916 5916 5917 5918 5918 5919 5920 5920 5920
5847 5848 5849 5850 5851 5853 5855 5856 5856 5857 5858 5859 5862 5864 5866 5869 5872 5873 5874 5875 5875 5876 5878 5881 5883 5885 5887 5889 5891 5892 5893 5894 5895 5896 5897 5898 5899 5900 5901 5903 5904 5905 5905 5906 5908 5910 5910 5910 5911 5912 5912 5914 5914 5915 5915 5915 5916 5917 5917 5917 5918 5919 5919
5845 5845 5846 5848 5849 5850 5852 5853 5853 5854 5855 5856 5857 5860 5862 5864 5867 5869 5871 5873 5873 5873 5875 5877 5879 5882 5884 5887 5889 5890 5891 5892 5892 5893 5894 5896 5897 5899 5900 5901 5902 5903 5904 5906 5908 5909 5909 5909 5910 5910 5911 5912 5913 5913 5914 5914 5915 5915 5915 5916 5916 5916 5917
5842 5843 5844 5845 5846 5848 5849 5851 5851 5851 5852 5853 5854 5856 5857 5860 5863 5865 5867 5870 5872 5872 5873 5874 5876 5878 5881 5884 5886 5887 5888 5889 5890 5891 5893 5895 5897 5898 5900 5901 5902 5903 5904 5905 5906 5907 5907 5908 5908 5909 5909 5910 5911 5912 5912 5913 5913 5913 5913 5913 5914 5914 5914
5840 5840 5841 5842 5844 5845 5847 5848 5849 5849 5849 5850 5852 5853 5855 5856 5858 5862 5864 5865 5868 5870 5871 5872 5873 5875 5877 5879 5881 5883 5884 5886 5888 5890 5892 5894 5896 5897 5898 5899 5900 5901 5902 5904 5904 5905 5905 5906 5907 5907 5907 5908 5909 5909 5910 5910 5911 5911 5911 5911 5911 5912 5912
5837 5838 5838 5840 5841 5842 5843 5845 5846 5846 5847 5848 5849 5850 5852 5853 5854 5857 5859 5860 5862 5865 5868 5869 5871 5872 5874 5876 5877 5879 5881 5882 5884 5886 5888 5891 5893 5894 5895 5896 5898 5899 5900 5901 5902 5902 5903 5903 5904 5905 5906 5906 5906 5907 5907 5908 5908 5909 5909 5910 5910 5910 5910
5835 5835 5835 5836 5838 5839 5840 5842 5842 5843 5843 5844 5846 5847 5848 5849 5851 5852 5854 5856 5858 5860 5863 5866 5868 5870 5871 5872 5873 5875 5877 5879 5880 5882 5884 5886 5888 5890 5891 5893 5895 5896 5897 5897 5898 5899 5900 5900 5901 5902 5903 5903 5904 5904 5904 5905 5906 5906 5907 5908 5908 5908 5908
5832 5832 5832 5834 5835 5836 5837 5838 5839 5840 5840 5841 5842 5844 5845 5846 5847 5848 5851 5853 5855 5857 5859 5862 5864 5866 5868 5869 5870 5871 5873 5875 5877 5879 5880 5882 5884 5886 5888 5890 5891 5892 5893 5893 5894 5895 5896 5897 5897 5898 5899 5900 5900 5901 5902 5902 5903 5904 5904 5904 5905 5905 5905
5829 5830 5830 5831 5833 5833 5834 5835 5836 5837 5837 5838 5839 5840 5841 5842 5843 5845 5847 5849 5852 5855 5857 5858 5861 5863 5865 5866 5866 5868 5869 5871 5873 5875 5876 5878 5880 5881 5883 5885 5886 5888 5889 5890 5891 5892 5893 5893 5894 5894 5895 5895 5896 5897 5898 5899 5900 5900 5901 5901 5900 5901 5901
5827 5828 5828 5829 5830 5830 5831 5831 5832 5833 5834 5835 5836 5837 5838 5839 5840 5842 5844 5846 5848 5851 5853 5855 5858 5860 5862 5862 5863 5865 5866 5867 5869 5870 5872 5874 5876 5877 5878 5880 5882 5884 5886 5888 5889 5890 5889 5889 5890 5891 5891 5891 5892 5893 5895 5896 5897 5897 5897 5897 5896 5896 5896
5824 5825 5826 5826 5827 5827 5827 5828 5829 5830 5831 5832 5833 5834 5835 5836 5837 5838 5840 5843 5845 5848 5851 5853 5855 5857 5858 5860 5860 5861 5862 5863 5864 5865 5867 5869 5870 5872 5873 5875 5878 5881 5883 5884 5885 5885 5884 5883 5885 5888 5888 5887 5888 5891 5892 5893 5894 5893 5893 5893 5893 5892 5892
5821 5822 5823 5823 5824 5824 5825 5825 5826 5826 5828 5829 5830 5831 5832 5833 5834 5835 5837 5839 5841 5844 5846 5849 5851 5852 5854 5856 5857 5858 5858 5859 5861 5862 5863 5864 5865 5866 5868 5871 5874 5877 5879 5879 5880 5880 5879 5880 5882 5884 5884 5883 5885 5887 5888 5889 5889 5889 5889 5889 5889 5888 5888
5817 5819 5820 5821 5821 5822 5822 5822 5823 5823 5824 5826 5827 5828 5829 5830 5831 5832 5834 5835 5836 5839 5842 5844 5846 5847 5849 5850 5851 5853 5854 5856 5858 5859 5859 5860 5861 5862 5864 5867 5869 5872 5873 5874 5875 5876 5876 5878 5880 5881 5882 5882 5883 5883 5883 5884 5884 5884 5884 5885 5884 5885 5885
5813 5815 5816 5817 5818 5818 5819 5819 5820 5821 5822 5823 5824 5825 5825 5826 5827 5829 5830 5831 5832 5835 5838 5840 5841 5842 5843 5843 5844 5846 5849 5852 5855 5856 5856 5856 5857 5858 5861 5863 5864 5867 5869 5869 5869 5871 5872 5873 5876 5878 5879 5879 5879 5879 5878 5878 5879 5879 5879 5879 5879 5880 5881
5809 5810 5812 5813 5814 5815 5816 5817 5818 5818 5819 5820 5821 5822 5822 5823 5824 5825 5826 5827 5829 5831 5834 5835 5836 5837 5837 5837 5839 5842 5845 5846 5849 5851 5853 5853 5853 5855 5857 5859 5859 5862 5864 5864 5865 5866 5867 5868 5869 5871 5873 5874 5876 5876 5874 5874 5874 5874 5874 5874 5874 5875 5877
5805 5807 5808 5810 5811 5812 5813 5814 5815 5816 5817 5818 5819 5820 5820 5820 5821 5822 5823 5824 5825 5826 5828 5830 5831 5833 5834 5834 5835 5838 5840 5841 5841 5844 5847 5849 5849 5849 5851 5853 5855 5857 5859 5860 5861 5862 5862 5863 5864 5866 5867 5869 5870 5870 5870 5870 5870 5870 5870 5870 5869 5869 5872
5802 5803 5805 5806 5807 5808 5809 5811 5812 5813 5814 5815 5816 5817 5817 5817 5818 5819 5820 5820 5820 5821 5823 5825 5827 5829 5830 5830 5831 5832 5834 5836 5836 5838 5841 5843 5843 5844 5846 5848 5850 5851 5854 5856 5856 5857 5858 5860 5861 5861 5862 5863 5864 5865 5865 5865 5865 5865 5865 5865 5865 5865 5866
5799 5800 5801 5802 5803 5804 5806 5808 5809 5810 5811 5812 5813 5814 5814 5814 5815 5816 5817 5817 5816 5816 5818 5820 5822 5824 5826 5827 5828 5828 5829 5831 5832 5834 5836 5837 5838 5839 5841 5843 5844 5846 5849 5851 5850 5851 5854 5856 5856 5856 5857 5859 5860 5861 5861 5861 5861 5861 5861 5861 5862 5861 5861
5796 5797 5798 5799 5800 5801 5803 5804 5806 5807 5808 5809 5810 5811 5811 5811 5812 5813 5814 5814 5813 5813 5814 5816 5818 5821 5823 5824 5824 5825 5825 5826 5828 5829 5830 5832 5833 5834 5835 5837 5839 5841 5844 5845 5845 5847 5851 5852 5851 5853 5854 5855 5855 5856 5857 5857 5857 5857 5857 5858 5858 5858 5857
5794 5794 5795 5796 5798 5799 5800 5801 5803 5804 5805 5806 5806 5807 5808 5808 5809 5810 5810 5810 5810 5812 5813 5815 5816 5818 5820 5821 5821 5821 5820 5820 5822 5824 5825 5828 5830 5831 5832 5833 5834 5836 5838 5839 5840 5843 5846 5847 5848 5849 5850 5850 5851 5852 5852 5853 5853 5853 5853 5853 5853 5853 5852
5792 5792 5792 5793 5795 5796 5797 5799 5800 5801 5803 5803 5804 5804 5805 5806 5807 5807 5806 5806 5807 5809 5810 5812 5813 5815 5816 5816 5817 5817 5816 5816 5817 5819 5822 5825 5826 5826 5827 5829 5831 5832 5833 5835 5837 5839 5841 5842 5843 5844 5845 5845 5846 5847 5847 5848 5848 5848 5848 5847 5848 5848 5848
5790 5790 5790 5791 5792 5793 5794 5795 5797 5798 5800 5801 5801 5802 5803 5804 5804 5804 5803 5804 5804 5805 5807 5808 5810 5811 5811 5811 5812 5813 5813 5812 5813 5814 5817 5820 5821 5822 5824 5826 5827 5828 5830 5831 5833 5835 5836 5837 5838 5839 5840 5841 5841 5842 5842 5842 5842 5843 5843 5842 5842 5843 5843
5788 5788 5789 5789 5790 5790 5791 5792 5794 5795 5797 5798 5799 5800 5800 5801 5801 5802 5802 5803 5803 5803 5803 5804 5805 5806 5806 5806 5808 5809 5810 5809 5810 5811 5813 5815 5817 5818 5820 5821 5822 5824 5826 5828 5829 5831 5832 5833 5834 5835 5836 5836 5837 5837 5838 5838 5838 5838 5838 5838 5838 5838 5838
5786 5786 5786 5787 5788 5788 5789 5790 5791 5793 5794 5795 5796 5797 5798 5799 5799 5800 5801 5801 5801 5801 5801 5801 5802 5802 5802 5803 5805 5807 5808 5808 5808 5809 5811 5813 5814 5815 5816 5818 5820 5822 5823 5824 5826 5827 5828 5829 5830 5831 5832 5832 5833 5834 5834 5834 5835 5835 5835 5835 5834 5834 5835
5784 5784 5784 5785 5785 5786 5787 5788 5789 5791 5792 5793 5794 5795 5796 5797 5797 5798 5799 5799 5799 5800 5800 5801 5801 5802 5802 5802 5804 5805 5806 5806 5806 5807 5809 5810 5811 5813 5814 5816 5818 5819 5820 5822 5823 5823 5824 5825 5825 5827 5828 5829 5829 5830 5830 5831 5831 5831 5832 5832 5831 5831 5832
5782 5782 5782 5783 5783 5784 5785 5786 5787 5788 5789 5791 5792 5793 5794 5795 5795 5796 5797 5797 5797 5797 5798 5799 5800 5801 5801 5801 5802 5803 5804 5804 5804 5805 5807 5808 5809 5811 5812 5814 5815 5816 5817 5818 5819 5819 5820 5821 5822 5823 5825 5826 5826 5827 5827 5827 5828 5828 5829 5829 5829 5829 5829